Previsão horária em Jurgi

Hoje, 22 Junho, Terça-feira

Tempo Temperatura Precipitação Vento Pressão Humidade
00:00 +21°C° 0 mm 3 m/s 749 mmHg 86%
01:00 +20°C° 0 mm 3 m/s 748 mmHg 88%
02:00 +20°C° 0 mm 3 m/s 748 mmHg 89%
03:00 +20°C° 0 mm 3 m/s 748 mmHg 90%
04:00 +20°C° 0 mm 3 m/s 748 mmHg 92%
05:00 +22°C° 0 mm 3 m/s 749 mmHg 85%
06:00 +24°C° 0 mm 3 m/s 749 mmHg 79%
07:00 +26°C° 0 mm 4 m/s 749 mmHg 73%
08:00 +27°C° 0 mm 4 m/s 749 mmHg 68%
09:00 +28°C° 0 mm 4 m/s 749 mmHg 64%
10:00 +30°C° 0 mm 4 m/s 749 mmHg 59%
11:00 +32°C° 0 mm 4 m/s 749 mmHg 56%
12:00 +32°C° 0 mm 4 m/s 749 mmHg 52%
13:00 +33°C° 0 mm 4 m/s 749 mmHg 49%
14:00 +33°C° 0 mm 4 m/s 749 mmHg 52%
15:00 +32°C° 0 mm 4 m/s 749 mmHg 55%
16:00 +32°C° 0 mm 4 m/s 749 mmHg 58%
17:00 +29°C° 0.7 mm 4 m/s 748 mmHg 65%
18:00 +27°C° 0.7 mm 4 m/s 748 mmHg 73%
19:00 +25°C° 0.7 mm 5 m/s 748 mmHg 80%
20:00 +23°C° 2 mm 4 m/s 749 mmHg 85%
21:00 +21°C° 2 mm 3 m/s 750 mmHg 90%
22:00 +20°C° 2 mm 2 m/s 751 mmHg 94%
23:00 +21°C° 0.1 mm 1 m/s 751 mmHg 94%

Amanhã, 23 Junho, Quarta-feira

Tempo Temperatura Precipitação Vento Pressão Humidade
00:00 +21°C° 0.1 mm 1 m/s 751 mmHg 93%
01:00 +21°C° 0.1 mm 1 m/s 751 mmHg 92%
02:00 +21°C° 0 mm 1 m/s 751 mmHg 93%
03:00 +21°C° 0 mm 1 m/s 752 mmHg 94%
04:00 +20°C° 0 mm 1 m/s 752 mmHg 95%
05:00 +20°C° 0 mm 2 m/s 752 mmHg 91%
06:00 +21°C° 0 mm 2 m/s 753 mmHg 87%
07:00 +23°C° 0 mm 2 m/s 753 mmHg 83%
08:00 +25°C° 0 mm 2 m/s 753 mmHg 77%
09:00 +26°C° 0 mm 2 m/s 753 mmHg 70%
10:00 +28°C° 0 mm 1 m/s 754 mmHg 64%
11:00 +28°C° 0 mm 1 m/s 754 mmHg 61%
12:00 +29°C° 0 mm 1 m/s 754 mmHg 58%
13:00 +30°C° 0 mm 1 m/s 754 mmHg 56%
14:00 +30°C° 0.2 mm 1 m/s 754 mmHg 59%
15:00 +29°C° 0.2 mm 1 m/s 754 mmHg 62%
16:00 +29°C° 0.2 mm 2 m/s 754 mmHg 65%
17:00 +28°C° 0.6 mm 2 m/s 754 mmHg 71%
18:00 +27°C° 0.6 mm 2 m/s 754 mmHg 76%
19:00 +26°C° 0.6 mm 3 m/s 754 mmHg 82%
20:00 +24°C° 1.1 mm 3 m/s 754 mmHg 86%
21:00 +22°C° 1.1 mm 3 m/s 754 mmHg 91%
22:00 +20°C° 1.1 mm 3 m/s 755 mmHg 95%
23:00 +20°C° 0.2 mm 3 m/s 754 mmHg 96%

Depois de amanhã, 24 Junho, Quinta-feira

Tempo Temperatura Precipitação Vento Pressão Humidade
00:00 +20°C° 0.2 mm 3 m/s 754 mmHg 96%
01:00 +19°C° 0.2 mm 3 m/s 754 mmHg 97%
02:00 +19°C° 0 mm 3 m/s 754 mmHg 97%
03:00 +19°C° 0 mm 3 m/s 755 mmHg 97%
04:00 +18°C° 0 mm 3 m/s 755 mmHg 97%
05:00 +19°C° 0 mm 3 m/s 755 mmHg 93%
06:00 +21°C° 0 mm 3 m/s 755 mmHg 88%
07:00 +22°C° 0 mm 3 m/s 754 mmHg 84%
08:00 +24°C° 0 mm 3 m/s 754 mmHg 79%
09:00 +26°C° 0 mm 2 m/s 754 mmHg 74%
10:00 +27°C° 0 mm 2 m/s 755 mmHg 69%
11:00 +28°C° 0 mm 2 m/s 754 mmHg 66%
12:00 +29°C° 0 mm 2 m/s 754 mmHg 63%
13:00 +30°C° 0 mm 2 m/s 754 mmHg 61%
14:00 +30°C° 0.1 mm 2 m/s 753 mmHg 62%
15:00 +30°C° 0.1 mm 2 m/s 753 mmHg 63%
16:00 +29°C° 0.1 mm 2 m/s 753 mmHg 65%
17:00 +28°C° 0.8 mm 2 m/s 752 mmHg 70%
18:00 +27°C° 0.8 mm 2 m/s 752 mmHg 75%
19:00 +26°C° 0.8 mm 2 m/s 752 mmHg 80%
20:00 +25°C° 0.9 mm 2 m/s 752 mmHg 84%
21:00 +24°C° 0.9 mm 2 m/s 752 mmHg 88%
22:00 +23°C° 0.9 mm 2 m/s 752 mmHg 93%
23:00 +23°C° 0.6 mm 2 m/s 752 mmHg 93%

25 Junho, Sexta-feira

Tempo Temperatura Precipitação Vento Pressão Humidade
00:00 +23°C° 0.6 mm 2 m/s 751 mmHg 93%
01:00 +23°C° 0.6 mm 2 m/s 751 mmHg 93%
02:00 +21°C° 0.2 mm 2 m/s 751 mmHg 93%
03:00 +22°C° 0.2 mm 1 m/s 751 mmHg 94%
04:00 +22°C° 0.2 mm 1 m/s 751 mmHg 95%
05:00 +23°C° 0.3 mm 1 m/s 751 mmHg 92%
06:00 +23°C° 0.3 mm 2 m/s 751 mmHg 90%
07:00 +24°C° 0.3 mm 2 m/s 750 mmHg 87%
08:00 +26°C° 0 mm 2 m/s 750 mmHg 79%
09:00 +27°C° 0 mm 2 m/s 750 mmHg 71%
10:00 +29°C° 0 mm 2 m/s 751 mmHg 63%
11:00 +29°C° 0 mm 1 m/s 750 mmHg 62%
12:00 +30°C° 0 mm 1 m/s 750 mmHg 60%
13:00 +31°C° 0 mm 1 m/s 750 mmHg 58%
14:00 +31°C° 0.9 mm 2 m/s 749 mmHg 61%
15:00 +30°C° 0.9 mm 2 m/s 749 mmHg 64%
16:00 +30°C° 0.9 mm 3 m/s 748 mmHg 68%
17:00 +28°C° 0.7 mm 4 m/s 749 mmHg 74%
18:00 +25°C° 0.7 mm 5 m/s 749 mmHg 80%
19:00 +22°C° 0.7 mm 5 m/s 749 mmHg 87%
20:00 +21°C° 0.2 mm 5 m/s 750 mmHg 89%
21:00 +20°C° 0.2 mm 4 m/s 750 mmHg 92%
22:00 +19°C° 0.2 mm 3 m/s 750 mmHg 95%
23:00 +19°C° 0 mm 3 m/s 750 mmHg 95%

26 Junho, Sábado

Tempo Temperatura Precipitação Vento Pressão Humidade
00:00 +18°C° 0 mm 3 m/s 750 mmHg 96%
01:00 +18°C° 0 mm 4 m/s 750 mmHg 97%
02:00 +18°C° 0 mm 3 m/s 751 mmHg 96%
03:00 +17°C° 0 mm 3 m/s 751 mmHg 96%
04:00 +17°C° 0 mm 3 m/s 751 mmHg 95%
05:00 +17°C° 0 mm 3 m/s 751 mmHg 92%
06:00 +18°C° 0 mm 3 m/s 752 mmHg 89%
07:00 +18°C° 0 mm 4 m/s 752 mmHg 86%
08:00 +20°C° 0 mm 4 m/s 752 mmHg 80%
09:00 +21°C° 0 mm 4 m/s 752 mmHg 74%
10:00 +23°C° 0 mm 5 m/s 753 mmHg 67%
11:00 +23°C° 0 mm 4 m/s 753 mmHg 68%
12:00 +23°C° 0 mm 4 m/s 753 mmHg 69%
13:00 +23°C° 0 mm 4 m/s 753 mmHg 71%
14:00 +23°C° 0 mm 4 m/s 753 mmHg 70%
15:00 +24°C° 0 mm 3 m/s 753 mmHg 69%
16:00 +24°C° 0 mm 3 m/s 753 mmHg 69%
17:00 +22°C° 0.1 mm 3 m/s 753 mmHg 73%
18:00 +23°C° 0.1 mm 2 m/s 753 mmHg 76%
19:00 +21°C° 0.1 mm 2 m/s 753 mmHg 80%
20:00 +20°C° 0 mm 2 m/s 753 mmHg 82%
21:00 +18°C° 0 mm 2 m/s 754 mmHg 85%
22:00 +17°C° 0 mm 2 m/s 754 mmHg 88%
23:00 +17°C° 0 mm 2 m/s 754 mmHg 89%

27 Junho, Domingo

Tempo Temperatura Precipitação Vento Pressão Humidade
00:00 +16°C° 0 mm 2 m/s 754 mmHg 90%
01:00 +15°C° 0 mm 2 m/s 754 mmHg 92%
02:00 +15°C° 0 mm 2 m/s 754 mmHg 92%
03:00 +15°C° 0 mm 2 m/s 755 mmHg 92%
04:00 +15°C° 0 mm 2 m/s 755 mmHg 92%
05:00 +16°C° 0 mm 2 m/s 755 mmHg 86%
06:00 +18°C° 0 mm 3 m/s 755 mmHg 80%
07:00 +19°C° 0 mm 3 m/s 755 mmHg 75%
08:00 +21°C° 0 mm 3 m/s 755 mmHg 70%
09:00 +22°C° 0 mm 3 m/s 755 mmHg 65%
10:00 +24°C° 0 mm 3 m/s 755 mmHg 60%
11:00 +25°C° 0 mm 3 m/s 755 mmHg 58%
12:00 +25°C° 0 mm 3 m/s 755 mmHg 55%
13:00 +26°C° 0 mm 4 m/s 755 mmHg 53%
14:00 +26°C° 0 mm 3 m/s 755 mmHg 54%
15:00 +26°C° 0 mm 3 m/s 755 mmHg 54%
16:00 +26°C° 0 mm 3 m/s 755 mmHg 55%
17:00 +25°C° 0 mm 3 m/s 755 mmHg 60%
18:00 +24°C° 0 mm 2 m/s 755 mmHg 65%
19:00 +23°C° 0 mm 2 m/s 755 mmHg 70%
20:00 +21°C° 0 mm 2 m/s 755 mmHg 73%
21:00 +20°C° 0 mm 2 m/s 755 mmHg 76%
22:00 +19°C° 0 mm 2 m/s 755 mmHg 79%
23:00 +18°C° 0 mm 2 m/s 755 mmHg 82%
Mostrar mais

Necessitamos do seu Consentimento

A Meteoprog e os seus Fornecedores de Serviços podem armazenar e aceder a dados pessoais como cookies, identificadores do dispositivo ou outras tecnologias semelhantes existentes no seu dispositivo e processar estes dados para personalizar conteúdos e anúncios, assim como funcionalidades nas redes sociais e análise de tráfego.

  • Armazenar e/ou aceder a informações no seu dispositivo

    Os cookies, identificadores do dispositivo ou outras informações podem ser armazenados ou acedidos no seu dispositivo, para os fins acima indicados.

  • Anúncios e conteúdos personalizados, medição de anúncios e conteúdos, dados sobre o público-alvo e desenvolvimento de produtos

    Os anúncios e os conteúdos podem ser personalizados com base num perfil. Podem ser adicionados dados adicionais para uma maior personalização dos anúncios e dos conteúdos. A eficácia dos anúncios e dos conteúdos pode ser medida. Podem ser obtidas informações sobre o público que visualizou os anúncios e os conteúdos. Estes dados podem ser usados para desenvolver ou melhorar sistemas, softwares ou a experiência do utilizador.

Ao clicar em "Eu concordo”, permitirá o uso de cookies, identificadores do dispositivo e web beacons mencionados ou outras tecnologias semelhantes. As configurações do navegador do seu dispositivo podem ser alteradas.

Para certos fins, podem ser invocados interesses legítimos ao invés de consentimento. Pode ler mais informação sobre este assunto na nossa Política de Privacidade e Cookies.